Regional Weather Roundup
Issued by NWS Wakefield, VA

Home | Current Version | Previous Version | Graphics & Text | Print | Product List | Glossary On
Versions: 1 2 3 4 5 6 7 8 9 10 11 12 13 14 15 16 17 18 19 20 21 22 23 24 25 26 27 28 29 30 31 32 33 34 35 36 37 38 39 40 41 42 43 44 45 46 47 48 49 50
000
ASUS41 KAKQ 290414
RWRAKQ

REGIONAL WEATHER ROUNDUP
NATIONAL WEATHER SERVICE WAKEFIELD VA
1200 AM EDT SAT AUG 29 2015

Note: "fair" indicates few or no clouds below 12,000 feet with no
significant weather and/or obstructions to visibility. * = Denotes
station may not report precipitation (e.g., rain,snow,etc.),
thunder or fog.

VAZ042-051-052>054-056-290500-
NORTHERN VIRGINIA

CITY           SKY/WX    TMP DP  RH WIND       PRES   REMARKS
WASH NATIONAL  MOCLDY    72  61  68 S3        30.21R
DULLES         MOCLDY    71  61  70 S5        30.20S
FORT BELVOIR   PTCLDY    65  62  90 CALM      30.20R
QUANTICO       MOCLDY    75  60  59 SW6       30.21R
FREDERICKSBRG* CLOUDY    71  61  70 CALM      30.19S
STAFFORD*      MOCLDY    65  61  85 CALM      30.24S
WARRENTON      CLEAR     68  63  84 CALM      30.20S
CULPEPER*      CLOUDY    65  63  93 CALM      30.21S
MANASSAS*      PTCLDY    70  63  78 CALM      30.20S
LEESBURG*      PTCLDY    68  64  88 NW3       30.22R
WINCHESTER     CLOUDY    66  59  77 CALM      30.20S
FRONT ROYAL*   MOCLDY    64  61  88 CALM      30.19S
LURAY*         CLOUDY    66  61  82 CALM      30.21R
$$

VAZ048-049-060>072-079>083-290500-
CENTRAL AND SOUTH CENTRAL VIRGINIA

CITY           SKY/WX    TMP DP  RH WIND       PRES   REMARKS
RICHMOND       CLEAR     68  59  73 SE3       30.20S
CHESTERFIELD*  FAIR      64  50  59 CALM      30.22R
PETERSBURG*    CLEAR     61  61 100 CALM      30.21S
HANOVER        CLEAR     64  61  90 CALM      30.22R
TAPPAHANNOCK*  CLEAR     64  55  73 CALM      30.22R
QUINTON*       FAIR      63  62  96 CALM      30.20S
CHARLOTTSVILLE CLOUDY    73  62  68 CALM      30.21R
GORDONSVILLE*  MOCLDY    67  65  92 CALM      30.21R
ORANGE*        MOCLDY    72  61  68 CALM      30.22S
LOUISA*        CLEAR     70  61  73 CALM      30.20S
BUMPASS*       MOCLDY    67  61  82 CALM      30.20S
FARMVILLE*     CLEAR     64  64  98 CALM      30.19S
CREWE*         FAIR     N/A N/A N/A CALM      30.21S
FORT PICKETT*  FAIR      65  60  85 SE3       30.21S
CHASE CITY*    FAIR      67  64  90 CALM      30.21S
CLARKSVILLE*   FAIR      68  61  77 CALM      30.20S
SOUTH HILL*    CLEAR     61  59  92 CALM      30.27R
LAWRENCEVILLE* FAIR      64  61  88 CALM      30.21S
EMPORIA*       CLEAR     59  57  94 CALM      30.22S
$$

VAZ088>098-290500-
SOUTHEAST VIRGINIA

CITY           SKY/WX    TMP DP  RH WIND       PRES   REMARKS
NORFOLK        CLEAR     70  61  73 CALM      30.19F
VIRGINIA BEACH PTCLDY    68  59  73 CALM      30.19S
NORFOLK NAVAL  PTCLDY    65  59  81 CALM      30.21S
WEST POINT*    CLEAR     64  59  83 CALM      30.22S
SALUDA*        FAIR      64  60  85 CALM      30.20S
NEWPORT NEWS   CLEAR     63  60  90 NE3       30.20S
LANGLEY AFB    CLEAR     65  60  81 CALM      30.19S
FORT EUSTIS    CLEAR     67  67  97 CALM      30.18S
WILLIAMSBURG*  CLEAR     70  64  83 E3        30.21S
HR EXEC AP*      N/A     55  52  88 CALM      30.22S
FRANKLIN*      CLEAR     60  58  94 CALM      30.21S
WAKEFIELD      CLEAR     63  58  83 CALM      30.20S
$$

VAZ020-022-025-037-045-290500-
WEST CENTRAL AND SOUTHWEST VIRGINIA

CITY           SKY/WX    TMP DP  RH WIND       PRES   REMARKS
STAUNTON*      CLOUDY    70  63  77 CALM      30.24R
WAYNESBORO*    CLOUDY    71  60  67 CALM      30.23S
HOT SPRINGS VA PTCLDY    65  57  75 S7        30.31S
LYNCHBURG      CLEAR     67  59  75 SW5       30.23R
DANVILLE       PTCLDY    64  60  87 CALM      30.20S
SOUTH BOSTON*  FAIR      63  61  94 CALM      30.20S
MARTINSVILLE   PTCLDY    62  62 100 CALM      30.24S FOG
ROANOKE        PTCLDY    72  60  66 CALM      30.23S
BLACKSBURG     CLOUDY    68  63  84 CALM      30.29S
DUBLIN*        CLOUDY    66  64  94 CALM      30.27S
MARION*        CLEAR     64  59  84 CALM      30.29F
HILLSVILLE*    PTCLDY    65  58  80 S3        30.28S
RICHLANDS*     FAIR      69  25  19 CALM      30.26S
WISE*          CLEAR     68  57  68 S6        30.27S
ABINGDON*      PTCLDY    66  60  80 CALM      30.24S
$$

MDZ021>025-VAZ099-100-290500-
SOUTHERN MARYLAND AND THE DELMARVA PENINSULA

CITY           SKY/WX    TMP DP  RH WIND       PRES   REMARKS
PATUXENT RIVER CLEAR     68  60  75 S5        30.20R
BAY BRIDGE APT   N/A     68  61  77 E3        30.21R
LEONARDTOWN    CLEAR     68  59  73 CALM      30.22R
DOVER          CLEAR     67  59  74 SW6       30.19R
GEORGETOWN     CLEAR     61  56  83 CALM      30.21S
EASTON         NOT AVBL
CAMBRIDGE      CLEAR     64  57  77 CALM      30.20S
SALISBURY      CLEAR     62  58  86 CALM      30.20F
OCEAN CITY     CLEAR     61  57  87 CALM      30.20S
WALLOPS ISLAND CLEAR     65  60  84 CALM      30.21S
ACCOMACK*      CLEAR     59  50  72 SE3       30.20F
$$

NCZ012>017-030>032-290500-
NORTH CENTRAL AND EASTERN NORTH CAROLINA

CITY           SKY/WX    TMP DP  RH WIND       PRES   REMARKS
ROANOKE RAPIDS FAIR      61  59  94 CALM      30.20S
RALEIGH        MOCLDY    72  60  66 SE6       30.20S
ELIZABETH CITY PTCLDY    69  64  84 E3        30.19S
AHOSKIE*       PTCLDY    61  58  91 CALM      30.20S
EDENTON*       PTCLDY    67  63  86 NE3       30.19S
CURRITUCK*     PTCLDY    68  61  79 CALM      30.20S
KILL DEVIL HLS PTCLDY    74  65  71 E8        30.17S
MANTEO         PTCLDY    73  66  77 E8        30.18S
CAPE HATTERAS  MOCLDY    76  67  73 NE6G17    30.16S
TARBORO*       FAIR      61  60  94 CALM      30.20S
GOLDSBORO      CLEAR     66  62  87 E1        30.17S
WASHINGTON     PTCLDY    64  62  93 CALM      30.19S
GREENVILLE     PTCLDY    64  63  94 CALM      30.20S
NEW BERN       PTCLDY    70  63  78 NE7       30.19S
WILMINGTON     CLEAR     71  66  84 NE7       30.17R
$$

VAZ048-290500-
ELSEWHERE

CITY           SKY/WX    TMP DP  RH WIND       PRES   REMARKS
HARRISBURG PA  PTCLDY    66  59  78 CALM      30.20S
BALTIMORE      CLEAR     64  60  87 CALM      30.20R
ANNAPOLIS      CLEAR     69  64  84 CALM      30.20R
ANDREWS AFB    MOCLDY    66  60  78 SE2       30.20R
PHILADELPHIA   CLEAR     71  58  63 CALM      30.20R
HENDERSON NC   PTCLDY    69  57  65 CALM      30.21R
GREENSBORO     MOCLDY    71  59  65 CALM      30.20S
ROCKY MOUNT    MOCLDY    66  61  84 CALM      30.19F
$$

VAZ100-290500-
MARINE

STATION/POSITION TIME  TEMP    WIND        PRES    WAVE   SWELL
                       AIR SEA DIR/SP/G            HT/PER HT/PER
                 (UTC) (F)     (DEG/KT/KT) (MB)    (FT/S) (FT/S)
15NM E FENWICK I 0350   75 78  180/  6/  8 1022.9S   3/10   3/10
CHESAPEAKE LGHT  0300   76      80/  8/  9 1023.3R
CAPE HENRY BUOY  0328      78                N/A     3/11   2/11
CAPE CHARLES BUO 0326      78                N/A     3/11   3/11
OFFSHORE WE BUOY 0311      78                N/A     3/11   3/11
64NM E OF VA BCH 0350   76 79   50/ 10/ 12 1021.9S   4/10   3/10
44100 DUCK FRF   0324      78                N/A     4/11   2/11
44056 DUCK FRF   0311      78                N/A     3/ 9   2/11
DIAMOND SHLS NC  0350   80 82   50/ 17/ 21 1020.5F   5/11   3/11
CAPE LOOKOUT NC  0400   76      20/ 15/ 19 1020.7F
$$


USA.gov is the U.S. government's official web portal to all federal, state and local government web resources and services.